Погода в Кашире

Россия / Московская область     54°50′04″N   38°09′05″E
темп.,
°C
ветер,
м/с
пор.,
м/с
влажн.,
%
обл.,
%
осадки,
мм/ч
давл.,
гПа
погр.,
м
6 марта, сб
сб600:00−10зсз23890 0.0 101521
03:00−11з23900 0.0 101621
06:00−12зсз239379 0.0 101623
09:00−10сз359362 0.0 1017182
12:00−6сз468632 0.0 1017712
15:00−5зсз357966 0.2 1016940
18:00−8з3588100 0.3 1016100
21:00−11з448967 0.3 101664
7 марта, вс
вс700:00−13зюз47880 0.0 101492
03:00−11юз612899 0.0 1011240
06:00−9юз9178596 0.0 1007573
09:00−6юз10179098 0.2 10021000
12:00−3юз111889100 0.6 9971177
15:00−1зюз111888100 1.1 9951384
18:00−6зсз51277100 1.3 996713
21:00−10юз588167 1.3 998117
8 марта, пн
пн800:00−7зюз7149494 0.3 997604
03:00−7зюз7139394 0.5 997534
06:00−9зюз41095100 0.3 997266
09:00−10з61090100 0.8 999589
12:00−7зсз7108485 0.1 1002884
15:00−6зсз7108593 0.3 10051084
18:00−7сз51092100 0.2 1007399
21:00−10сз379498 0.4 1010163
9 марта, вт
вт900:00−15сз339554 0.0 101227
03:00−17сз239755 0.0 101422
06:00−18ссз239786 0.0 101527
09:00−16ссз359593 0.0 1017213
12:00−12с358598 0.0 1018495
15:00−11ссз458599 0.0 1019715
18:00−14с3391100 0.0 101937
21:00−18ссз339460 0.0 102221
10 марта, ср
ср1000:00−20ссз23970 0.0 102320
03:00−23с11997 0.0 102420
06:00−22ююз119739 0.0 102420
09:00−17ююв339670 0.1 1024142
12:00−12юв4594100 0.6 1024339
15:00−11юв4591100 0.8 1022481
18:00−13вюв5895100 0.2 1022257
21:00−15вюв599597 0.4 1023219